Regional Weather Roundup
Issued by NWS

Home | Current Version | Previous Version | Graphics & Text | Print | Product List | Glossary Off
Versions: 1 2 3 4 5 6 7 8 9 10 11 12 13 14 15 16 17 18 19 20 21 22 23 24 25 26 27 28 29 30 31 32 33 34 35 36 37 38 39 40 41 42 43 44 45 46 47 48 49 50

000
ASUS43 KMKX 070700
RWRWI

WISCONSIN REGIONAL WEATHER ROUNDUP
NATIONAL WEATHER SERVICE MILWAUKEE/SULLIVAN WI
100 AM CST WED DEC 07 2016

NOTE: "FAIR" INDICATES FEW OR NO CLOUDS BELOW 12,000 FEET WITH NO
SIGNIFICANT WEATHER AND/OR OBSTRUCTIONS TO VISIBILITY.

WIZ001-002-006>008-014>016-023>028-070800-
NORTHWEST WISCONSIN

CITY           SKY/WX    TMP DP  RH WIND       PRES   REMARKS
SUPERIOR ARPT  FLURRIES  22  15  74 W17G25    29.64R WCI   8
ASHLAND        NOT AVBL
HAYWARD        NOT AVBL
SIREN          LGT SNOW  19  13  76 SW17G25   29.74R WCI   4
CUMBERLAND     FLURRIES  19  12  73 W20G25    29.74R WCI   4
RICE LAKE      FLURRIES  19  13  76 SW10G22   29.77R WCI   8
CHETEK         LGT SNOW  18  14  82 MISG      29.78R
LADYSMITH      FLURRIES  20  15  80 SW14G22   29.75R WCI   6
EAU CLAIRE     NOT AVBL
MENOMONIE      CLOUDY    19  12  74 SW16G26   29.84R WCI   4
NEW RICHMOND   FLURRIES  19  12  73 W18G24    29.81R WCI   3
OSCEOLA        FLURRIES  20  13  72 W21G26    29.84S WCI   4
$$

WIZ003>005-009-010-017-018-070800-
NORTH CENTRAL WISCONSIN

CITY           SKY/WX    TMP DP  RH WIND       PRES   REMARKS
MANITOWISH WTR FLURRIES  18  14  83 SW17G24   29.63R WCI   3
ARBOR VITAE    LGT SNOW  20  14  79 W18G24    29.64R WCI   4
WOODRUFF       LGT SNOW  20  14  79 W18G24    29.64R WCI   4
RHINELANDER    NOT AVBL
EAGLE RIVER    LGT SNOW  19  12  75 SW23G29   29.63R WCI   2
LAND O LAKES   LGT SNOW  20  14  79 SW15G24   29.62R WCI   6
PHILLIPS       FLURRIES  18  14  84 SW14G23   29.68R WCI   4
TOMAHAWK       LGT SNOW  18  13  80 W8G17     29.70R WCI   8
MEDFORD        LGT SNOW  17  10  77 W22G35    29.74R WCI  -1
MERRILL        FLURRIES  19  13  77 W15G24    29.74R WCI   5
$$

WIZ029-030-035-036-043>047-070800-
CENTRAL WISCONSIN

CITY           SKY/WX    TMP DP  RH WIND       PRES   REMARKS
WAUSAU         NOT AVBL
MOSINEE        FLURRIES  21  18  86 SW16G24   29.77R WCI   7
MARSHFIELD     NOT AVBL
STEVENS POINT  CLOUDY    21  13  73 W12G25    29.80R WCI   9
WAUPACA        CLOUDY    27  17  66 W16G28    29.82R WCI  15
WAUTOMA        NOT AVBL
WISC RAPIDS    NOT AVBL
CAMP DOUGLAS   PTCLDY    21  14  73 W18G24    29.86R WCI   6
$$

WIZ011>013-019>022-031-037>040-048>050-070800-
NORTHEAST WISCONSIN

CITY           SKY/WX    TMP DP  RH WIND       PRES   REMARKS
ANTIGO         FLURRIES  20  15  82 W20G26    29.71R WCI   4
SHAWANO        CLOUDY    28  18  66 SW15G24   29.78R WCI  16
OCONTO         CLOUDY    27  16  63 W15G25    29.77S WCI  15
STURGEON BAY   NOT AVBL
GREEN BAY      NOT AVBL
MANITOWOC      NOT AVBL
APPLETON       CLOUDY    27  16  63 W15G29    29.80R WCI  15
CLINTONVILLE   CLOUDY    27  18  69 W13G24    29.79S WCI  16
OSHKOSH        NOT AVBL
$$

WIZ032>034-041-042-053>061-070800-
SOUTHWEST WISCONSIN

CITY           SKY/WX    TMP DP  RH WIND       PRES   REMARKS
LA CROSSE      NOT AVBL
SPARTA         CLOUDY    21  15  75 W9G21     29.90R WCI  11
VIROQUA        CLOUDY    19  14  80 W13       29.88S WCI   7
BOSCOBEL       NOT AVBL
PRAIRIE DU CHI MOCLDY    22  13  67 W12G20    29.98R WCI  11
PLATTEVILLE    CLEAR     22  16  79 W16G22    29.96R WCI   8
$$

WIZ056-057-062-063-064-067-068-070800-
SOUTH CENTRAL WISCONSIN

CITY           SKY/WX    TMP DP  RH WIND       PRES   REMARKS
REEDSBURG      CLOUDY    24  16  73 SW15      29.89S WCI  11
BARABOO/DELLS  CLOUDY    24  15  71 W15       29.88R WCI  11
LONE ROCK      NOT AVBL
MINERAL POINT  CLEAR     23  18  80 W12G17    29.92R WCI  12
MADISON        NOT AVBL
MIDDLETON      NOT AVBL
WATERTOWN      MOCLDY    24  17  77 SW8       29.90R WCI  14
MONROE         CLEAR     23  18  80 W15       29.93R WCI  10
JANESVILLE     CLEAR     27  18  69 W9G20     29.94S WCI  17
$$

WIZ051-052-058>065-066-070>072-070800-
SOUTHEAST WISCONSIN

CITY           SKY/WX    TMP DP  RH WIND       PRES   REMARKS
MILWAUKEE      PTCLDY    27  17  66 W10       29.90R WCI  17
WAUKESHA       CLEAR     23  16  74 W15G24    29.91R WCI  10
MILWAUKEE/TIMM PTCLDY    27  16  63 W17G25    29.89R WCI  14
RACINE         NOT AVBL
BURLINGTON     CLEAR     24  17  74 W13G18    29.93R WCI  13
KENOSHA        NOT AVBL
FOND DU LAC    NOT AVBL
SHEBOYGAN      NOT AVBL
WEST BEND      CLOUDY    27  19  74 W12G18    29.86S WCI  16
JUNEAU         PTCLDY    23  15  71 SW17      29.89R WCI  10
$$

LSZ147-162-070800-
LAKE SUPERIOR

STATION/POSITION TIME  TEMP    WIND        PRES    WAVE
                       AIR SEA DIR/SP/G            HT/PER
                 (UTC) (F)     (DEG/KT/KT) (MB)    (FT/S)
DEVILS ISLAND    0600   25     220/ 26/ 32 1001.9R
PORT WING        0630   23     220/ 13/ 22 1003.0R
SAXON HARBOR     0640   23     210/ 11/ 23 1003.7R
$$

LMZ867-665-643>646-070800-
LAKE MICHIGAN

STATION/POSITION TIME  TEMP    WIND        PRES    WAVE
                       AIR SEA DIR/SP/G            HT/PER
                 (UTC) (F)     (DEG/KT/KT) (MB)    (FT/S)
CHAMBERS ISLAND  0630   27     220/ 12/ 23 1006.8S
NORTHPORT PIER   0641   28     260/ 10/ 21 1007.5R
SISTER BAY       0554   30     280/ 25/ 31   N/A
KEWAUNEE LAKESHO 0630   28     340/ 17/ 29 1008.8R
SHEBOYGAN LAKESH 0600   28     250/ 16/ 18 1010.9R
PORT WASHINGTON  0640   28     260/ 11/ 23 1012.2F
MILWAUKEE LAKESH 0630   28     260/ 14/ 20   N/A
KENOSHA   LAKESH 0600   27     270/ 13/ 23 1013.2
$$

TC  - TEMPERATURE IN CELSIUS
VSB - VISIBILITY IN STATUTE MILES
WCI - WIND CHILL INDEX
HX  - HEAT INDEX




USA.gov is the U.S. government's official web portal to all federal, state and local government web resources and services.